Location: Fours
(44.3167°N, 6.7000°E)
Time: 21:49:52
(UTC+00:00)

CZ-4 R/B - Pass Details

Date: 16 October 2021
Orbit: 531 x 595 km, 97.8° (Epoch: 29 November)

Event Time Altitude Azimuth Distance (km) Brightness Sun altitude
Rises 18:01:56 0° 157° (SSE) 2,699 4.6 -14.1°
Reaches altitude 10° 18:04:02 10° 153° (SSE) 1,820 3.7 -14.5°
Maximum altitude 18:07:55 60° 74° (ENE) 642 1.3 -15.2°
Drops below altitude 10° 18:11:54 10° 354° (N) 1,873 4.1 -15.9°
Sets 18:14:06 0° 351° (N) 2,786 5.1 -16.3°
